Location: Northam
(31.6525°S, 116.6655°E)
Time: 06:21:03
(UTC+08:00)

AAUSAT CUBESAT 2 - Pass Details

Date: 02 August 2021
Orbit: 573 x 587 km, 97.5° (Epoch: 27 September)

Event Time Altitude Azimuth Distance (km) Brightness Sun altitude
Rises 18:33:27 0° 192° (SSW) 2,851 ? -12.0°
Reaches altitude 10° 18:36:27 10° 215° (SW) 1,939 ? -12.6°
Maximum altitude 18:38:48 15° 249° (WSW) 1,639 ? -13.1°
Drops below altitude 10° 18:41:08 10° 283° (WNW) 1,922 ? -13.6°
Sets 18:44:06 0° 307° (NW) 2,809 ? -14.2°
